loading
|

THOR ABLESTAR R/B, 893

Orbit data source: Space-Track

THOR ABLESTAR R/B, 893 is space debris in LEO originally from a launch on Tue, 06 Oct 1964 UTC launched from the Air Force Western Test Range (AFWTR). Debris objects in space refer to the collection of defunct objects orbiting the Earth. Examples of debris include non-operational satellites, rocket bodies, and fragments generated from explosions, collisions, or faulty payload assembly.

Loading next visibility...
Loading greatness...
THOR ABLESTAR R/B details
Identifier
893, 1964-063A
Orbit
LEO
Last TLE update1 day ago
Origin
Flag of USUSAF SSD (US)
ManufacturerAerojet
Mission statusUnknown
MissionUnknown
Bus & MotorABLESTAR, Unknown motor
Mass~600 kg wet, 600 kg dry
Launch date (UTC)
1964-10-06 (60 years ago)
Launch vehicleUnknown
Launch site
Air Force Western Test Range (AFWTR)
Object type
Payload
Rocket body
Debris
Radar Cross Section3.9 m², Large (>1 m²)

Expand to show TLE details & history

TLE from 1 day ago
0 THOR ABLESTAR R/B
1 00893U 64063A   24250.52125706  .00000133  00000-0  17740-3 0  9999
2 00893  90.2124  60.3727 0024289 321.2374  98.6153 13.56243394964104
Epoch: 2024-09-06T12:30Z
Definitive object data (Epoch: 2024-09-06T12:30:36.609Z)
Latitude60.21684°
Longitude-113.74166°
Altitude1,062.456 km
Speed7.325 km/s
True Right ascension04h 00m 00s
True Declination60° 04' 28"
Sunlit
Object was in daylight at TLE epoch
Predictive object data (real-time)
Latitude75.01602°
Longitude67.44443°
Altitude1,077.502 km
Speed7.312 km/s
Apparent Right ascension21h 27m 12s
Apparent Declination32° 47' 03"
Sunlit
Object is in daylight
Predictive observer data (real-time)
Local Sidereal Time10:58:50
Azimuth19.736° NNE
Elevation-14.271°
Doppler factor1
Orbital elements
Apogee1,064.45 km
Perigee1,028.383 km
Semi-major axis7,424.554 km
Eccentricity0.0024289
Inclination90.2124°
RAAN60.3727°
Arg. of periapsis321.2374°
True anomaly98.89036°
Mean anomaly98.6153°
Eccentric anomaly98.75284°
Mean motion3.39264 °/min
BSTAR0.0001774
Period106.11 mins
No data available

THOR ABLESTAR R/B Visibility forecast

Observer location: 39.9160978°, -105.1181434

THOR ABLESTAR R/B is not visible in the next 10 days
Span
Click to sort rows by Start time (UTC) header in descending order
Start Az.
Max El. time (UTC)
Max El. Az.
Max El.
End time (UTC)
End Az.